sat.trackr.live / text

‹ back to catalog

STARLINK-2155

NORAD 48557 · 2021-041E

PAYLOAD ACTIVE UNKNOWN

§ Identity

Operator
Country
US
Launch date
2021-05-15
Launch site
AFETR
Launch vehicle
Mass (kg)
RCS (m²)

Purposes: comms

External: N2YO · Heavens-Above · Gunter

§ Orbital elements

Epoch: 2026-05-25T03:04:19.574112Z

Period
94.01 min
Inclination
53.1576°
Eccentricity
0.0001459
Mean motion
15.31708118 rev/d
Perigee alt
469.7 km
Apogee alt
471.7 km
Semi-major
6,848.9 km
B*
6.5818e-5
RAAN
131.3388°
Arg perigee
97.1260°
Mean anomaly
262.9907°
Rev number
27,698

§ Raw data

STARLINK-21551 48557U 21041E   26145.12800433  .00001678  00000+0  65818-4 0  99992 48557  53.1576 131.3388 0001459  97.1260 262.9907 15.31708118276981

JSON: /api/v1/satellites/48557 · /tle

For live sub-satellite position, see the globe view (requires WebGL).

§ Visibility from observer

Set your observer location to see the next 7 days of passes ≥ 10°. The values pass through the URL so the page stays shareable.

No JS? Fill the form by hand. The geolocation button needs JavaScript.